Overview Statistics Trail Chart Weather Telemetry Raw packets
 

This is the latest recevied weather packets stored in our database for station/object KC0RKM-13. If no packets are shown the sender has not sent any weather packets the latest 10 day(s).

<< 1 2 3 4 5 6 >>
Time Temp. Humidity Pressure Rain* Wind** Luminosity Snow
1788544804 34.44° C 44% 1012.4 hPa 0 mm - - -
1788544204 33.89° C 44% 1012.8 hPa 0 mm - - -
1788543604 33.89° C 45% 1012.9 hPa 0 mm - - -
1788543004 33.33° C 46% 1013 hPa 0 mm - - -
1788542404 33.33° C 47% 1013 hPa 0 mm - - -
1788541803 33.33° C 46% 1013.4 hPa 0 mm - - -
1788541204 32.78° C 47% 1013.3 hPa 0 mm - - -
1788540604 32.78° C 48% 1013.3 hPa 0 mm - - -
1788540003 33.33° C 47% 1013.2 hPa 0 mm - - -
1788539403 32.22° C 50% 1013.4 hPa 0 mm - - -
1788538803 32.22° C 50% 1013.2 hPa 0 mm - - -
1788538204 31.67° C 52% 1013.3 hPa 0 mm - - -
1788537603 31.11° C 55% 1013.4 hPa 0 mm - - -
1788537004 30.56° C 56% 1013.7 hPa 0 mm - - -
1788536403 31.11° C 56% 1013.7 hPa 0 mm - - -
1788535803 30.56° C 56% 1013.8 hPa 0 mm - - -
1788535221 30° C 57% 1013.8 hPa 0 mm - - -
1788534603 30° C 59% 1013.8 hPa 0 mm - - -
1788534004 29.44° C 60% 1013.9 hPa 0 mm - - -
1788533404 29.44° C 61% 1013.7 hPa 0 mm - - -
1788532804 28.33° C 65% 1013.7 hPa 0 mm - - -
1788532204 27.78° C 66% 1013.9 hPa 0 mm - - -
1788531603 27.78° C 66% 1013.9 hPa 0 mm - - -
1788531003 27.22° C 68% 1014 hPa 0 mm - - -
1788530404 26.67° C 70% 1014.1 hPa 0 mm - - -

* Rain latest hour (hover to see other rain measurements)
** Current wind speed in m/s (hover to see current wind gust speed)